Regional Weather Roundup
Issued by NWS

Home | Current Version | Previous Version | Graphics & Text | Print | Product List | Glossary On
Versions: 1 2 3 4 5 6 7 8 9 10 11 12 13 14 15 16 17 18 19 20 21 22 23 24 25 26 27 28 29 30 31 32 33 34 35 36 37 38 39 40 41 42 43 44 45 46 47 48 49 50
000
ASUS43 KFSD 290802
RWRSD

WEATHER ROUNDUP FOR SOUTH DAKOTA
NATIONAL WEATHER SERVICE SIOUX FALLS SD
300 AM CDT SUN MAR 29 2015

NOTE: "FAIR" INDICATES FEW OR NO CLOUDS BELOW 12,000 FEET WITH NO
SIGNIFICANT WEATHER AND/OR OBSTRUCTIONS TO VISIBILITY.


SDZ001>005-009-010-012>017-290900-
NORTHWEST AND NORTH CENTRAL SOUTH DAKOTA

CITY           SKY/WX    TMP DP  RH WIND       PRES   REMARKS
BUFFALO          N/A     38  35  89 NW47G60   29.82R
FAITH            N/A     49  30  48 W26G33    29.77R
MOBRIDGE       CLEAR     44  38  79 W10       29.66R
$$

SDZ012>016-024>037-041>051-057-063-072>074-290900-
SOUTHWEST AND SOUTH CENTRAL SOUTH DAKOTA

CITY           SKY/WX    TMP DP  RH WIND       PRES   REMARKS
RAPID CTY ARPT CLEAR     52  20  28 NW28G46   29.88R
PIERRE         CLEAR     49  37  63 NW17      29.74S
CUSTER         CLEAR     41  17  38 NW26G47   29.96S
ELLSWORTH AFB  CLEAR     52  21  29 NW31G48   29.87R
PHILIP         PTCLDY    49  34  56 W14       29.84R
PINE RIDGE     CLEAR     44  24  45 NW6       29.93R
SPEARFISH      CLOUDY    46  28  49 NW37G47   30.00R
WINNER         FAIR      52  35  52 W13       29.81R
$$

SDZ004>011-016>023-039-040-290900-
NORTHEAST SOUTH DAKOTA

CITY           SKY/WX    TMP DP  RH WIND       PRES   REMARKS
ABERDEEN       CLOUDY    45  36  70 SW8       29.62S
WATERTOWN      CLOUDY    43  33  68 S16       29.61F
SISSETON         N/A     47  35  63 SW23G33   29.54F
$$

SDZ017-020-022-023-036>040-048>070-290900-
SOUTHEAST SOUTH DAKOTA

CITY           SKY/WX    TMP DP  RH WIND       PRES   REMARKS
SIOUX FALLS    CLOUDY    44  32  62 S17G30    29.72R
HURON          CLEAR     45  34  65 W9        29.68R
MITCHELL       CLEAR     47  35  63 W5        29.69R
YANKTON        CLOUDY    48  34  57 S22G30    29.73F
$$

ABBREVIATIONS USED IN REMARKS
   TC - TEMPERATURE IN CELSIUS
  WCI - WIND CHILL INDEX
   HX - HEAT INDEX
  VSB - VISIBILITY



USA.gov is the U.S. government's official web portal to all federal, state and local government web resources and services.